Flag Weather past 2 weeks in Charlottetown, Pr.Edward I, Canada

Now
32 °F

Light snow. Ice fog.


Feels Like: 24 °F
Forecast: 31 / 36 °F
Wind: 10 mph from Northeast

Location: Charlottetown

Current Time: Nov 26, 2014 at 10:20:38 PM

Latest Report: Nov 26, 2014 at 10:00 PM


Visibility: 1 mi

Pressure: 30.09 "Hg

Humidity: 100%

Dew point: 32 °F

Location of CharlottetownLocation

Historic Weather in Charlottetown — Graph

°F

Charlottetown temperature yesterday

Maximum temperature yesterday: 61 °F (at 12:00 PM)
Minimum temperature yesterday: 48 °F (at 10:00 PM)
Average temperature yesterday: 56 °F

Past Weeks' High & Low Weather Summary

 TemperatureHumidityPressure
High61 °F (Nov 25, 12:00 PM)100% (Nov 12, 12:00 AM)30.31 "Hg (Nov 12, 12:00 AM)
Low19 °F (Nov 22, 5:00 AM)43% (Nov 18, 11:00 PM)29.23 "Hg (Nov 18, 8:00 AM)
Average36 °F79%29.90 "Hg
* Reported Nov 11 9:00 PM — Nov 26 9:00 PM, Charlottetown, Weather by CustomWeather, © 2014

Note: Actual official high and low records may vary slightly from our data, if they occured in-between our weather recording intervals... More about our weather records

Advertising

Charlottetown weather history for previous 24 hours

 ConditionsComfort  
Time TempWeatherWind HumidityBarometerVisibility
9:00 PM
Nov 26
32 °FLight snow. Ice fog.8 mph100%30.13 "Hg1 mi
8:00 PM32 °FLight snow. Ice fog.5 mph100%30.16 "Hg1 mi
7:00 PM34 °FLight snow. Overcast.3 mph93%30.22 "Hg4 mi
6:00 PM39 °FSnow flurries. Mostly cloudy.2 mph65%30.22 "Hg15 mi
5:00 PM39 °FMostly cloudy.2 mph65%30.21 "Hg15 mi
4:00 PM39 °FMostly cloudy.2 mph61%30.19 "Hg15 mi
3:00 PM39 °FMostly cloudy.6 mph61%30.17 "Hg15 mi
2:00 PM41 °FMostly cloudy.9 mph57%30.16 "Hg15 mi
1:00 PM43 °FOvercast.9 mph53%30.17 "Hg15 mi
12:00 PM43 °FOvercast.10 mph57%30.18 "Hg15 mi
11:00 AM43 °FPartly sunny.9 mph57%30.18 "Hg15 mi
10:00 AM43 °FPartly sunny.12 mph57%30.16 "Hg15 mi
9:00 AM43 °FPartly sunny.10 mph57%30.15 "Hg15 mi
8:00 AM43 °FPartly sunny.10 mph57%30.12 "Hg15 mi
7:00 AM43 °FPassing clouds.12 mph57%30.08 "Hg15 mi
6:00 AM41 °FPassing clouds.9 mph61%30.05 "Hg15 mi
5:00 AM41 °FPassing clouds.9 mph66%30.03 "Hg15 mi
4:00 AM43 °FPassing clouds.8 mph57%30.01 "Hg15 mi
3:00 AM43 °FPassing clouds.8 mph61%29.99 "Hg15 mi
2:00 AM43 °FPassing clouds.8 mph61%29.96 "Hg15 mi
1:00 AM45 °FPassing clouds.8 mph57%29.92 "Hg15 mi
12:00 AM46 °FPassing clouds.10 mph57%29.90 "Hg15 mi
11:00 PM
Nov 25
48 °FPassing clouds.7 mph62%29.87 "Hg15 mi
10:00 PM48 °FPassing clouds.7 mph66%29.84 "Hg15 mi
Weather by CustomWeather, © 2014

See weather overviewHow to use our weather pages